Вернуться в каталог

STARLINK-37293

АктивенСвязьVLEO
NORAD 68978·PAYLOAD·🇺🇸 United States

Запущен May 1, 2026 с Cape Canaveral Space Force Station

Loading…

Ближайшие Пролёты (ближайшие 24 часа)

TLE

СвежийSource: CelesTrak SupGP

Эпоха: Sep 14, 2026, 22:59 UTC

1 68978C 26099AD  26257.95812500 -.00102020  00000+0 -30153-2 0  2573
2 68978  53.1569 101.3548 0001262  82.6406  83.5415 15.34428625    15

Отслеживайте STARLINK-37293 в реальном времени с AllMySat

Download on the App Store